STARLINK-36516, 67455

Orbit data source: Space-Track

STARLINK-36516, 67455 is a payload satellite owned by SpaceX/Seattle (US) in LEO that was launched on Wed, 14 Jan 2026 UTC via an FALCON 9 launch vehicle from the Air Force Eastern Test Range (AFETR). Payload-class satellites include a variety of spacecraft equipped with specific instruments for various scientific and technological missions. These include communications satellites like Starlink; space stations such as the ISS; scientific satellites like the Hubble; Earth observation satellites from companies like Planet Labs, Umbra, and HawkEye 360; GPS; miniature CubeSats for education and research; and military/defense satellites.

Loading next visibility...
Identifier
67455, 2026-008L
Orbit
LEO
Country
Flag of USUS
Related business
Manufacturer
SpaceX/Seattle
Mission
Operational Commercial Communications
Bus & Motor
STARLINK V2MO, Unknown motor
Mass
575 kg wet, ~530 kg dry
Launch date (UTC)
2026-01-14 (5 months ago)
Launch vehicle
FALCON 9
Launch site
Air Force Eastern Test Range (AFETR)
Object type
Payload
Rocket body
Debris
Shape & HBR
Box + 2 Pan, 17.7 m
Radar Cross Section
36.964 m², Large (>1 m²)

Expand to show TLE details & history
Last TLE update: 9 hours ago

TLE from 9 hours ago
0 STARLINK-36516
1 67455U 26008L   26171.47145676  .00020120  00000-0  73841-3 0  9991
2 67455  43.0010 344.5765 0001147 301.7347  58.3393 15.27591638 25295
Epoch: 2026-06-20T11:18Z
TLE epoch observation values (Epoch: 2026-06-20T11:18:53.864Z)
Latitude
0.00001°
Longitude
-93.83352°
Altitude
482.377 km
Speed
7.626 km/s
True Right ascension
22h 58m 18s
True Declination
0° 00' 00"
Sunlit
Object was in daylight at epoch
Visualization orbit readout
Latitude
Unknown
Longitude
Unknown
Altitude
Unknown
Speed
Unknown
Apparent Right ascension
Unknown
Apparent Declination
Unknown
Sunlit
N/A
Visualization observer readout
Local Sidereal Time
07:20:22
Azimuth
Unknown
Elevation
Unknown
Doppler factor
Unknown
Orbital elements
Apogee altitude
485.746 km
Perigee altitude
484.172 km
Semi-major axis
6,863.096 km
Eccentricity
0.00011
Inclination
43.001°
RAAN
344.5765°
Arg. of periapsis
301.7347°
True anomaly
58.35049°
Mean anomaly
58.3393°
Eccentric anomaly
58.34489°
Mean motion
3.81736 °/min
Orbital period
94.31 mins
BSTAR
0.00073841
Loading maneuver chart data...
Computing Atmospheric mass density...
Loading historical data...
Loading historical data...
Loading historical data...
Loading historical data...
Loading historical data...
Loading historical data...
Loading historical data...

Documentation

Showing up to 5 results
|